Location: Melizzano
(41.1500°N, 14.5000°E)
Time: 09:17:18
(UTC+00:00)

ARIANE 5 R/B - Pass Details

Date: 11 May 2021
Orbit: 620 x 656 km, 98.1° (Epoch: 13 June)

Event Time Altitude Azimuth Distance (km) Brightness Sun altitude
Exits shadow 20:52:23 44° 234° (SW) 867 3.2 -23.9°
Maximum altitude 20:52:59 47° 260° (W) 825 3.2 -24.0°
Drops below altitude 10° 20:57:11 10° 335° (NNW) 1,995 6.2 -24.4°
Sets 20:59:27 0° 341° (NNW) 2,906 7.3 -24.6°
